Flag for Japan Weather past 2 weeks in Nagano, Japan

Now
29 °F

Chilly.


Feels Like: 29 °F
Forecast: 16 / 43 °F
Wind: 2 mph from Northwest

Location: Nagano

Current Time: Dec 19, 2014 at 7:09:18 PM

Latest Report: Dec 19, 2014 at 6:00 PM


Visibility: N/A

Pressure: 30.47 "Hg

Humidity: 85%

Dew point: 25 °F

Location of NaganoLocation

Historic Weather in Nagano — Graph

°F

Nagano temperature yesterday

Maximum temperature yesterday: 33 °F (at 2:00 PM)
Minimum temperature yesterday: 24 °F (at 3:00 AM)
Average temperature yesterday: 28 °F

Past Weeks' High & Low Weather Summary

 TemperatureHumidityPressure
High46 °F (Dec 11, 3:00 PM)97% (Dec 16, 10:00 PM)30.55 "Hg (Dec 16, 10:00 PM)
Low22 °F (Dec 19, 7:00 AM)47% (Dec 10, 3:00 PM)29.47 "Hg (Dec 16, 8:00 PM)
Average33 °F84%30.04 "Hg
* Reported Dec 4 5:00 PM — Dec 19 5:00 PM, Nagano, Weather by CustomWeather, © 2014

Note: Actual official high and low records may vary slightly from our data, if they occured in-between our weather recording intervals... More about our weather records

Advertising

Nagano weather history for previous 24 hours

 ConditionsComfort  
Time TempWeatherWind HumidityBarometerVisibility
5:00 PM
Dec 19
31 °FChilly.3 mph81%30.47 "HgN/A
4:00 PM33 °FChilly.2 mph77%30.44 "HgN/A
3:00 PM33 °FPassing clouds.3 mph70%30.43 "Hg19 mi
2:00 PM33 °FChilly.5 mph69%30.44 "HgN/A
1:00 PM31 °FChilly.3 mph70%30.46 "HgN/A
11:00 AM29 °FChilly.3 mph73%30.51 "HgN/A
10:00 AM28 °FChilly.3 mph76%30.55 "HgN/A
9:00 AM25 °FPassing clouds.2 mph81%30.55 "Hg9 mi
8:00 AM23 °FCold.1 mph92%30.55 "HgN/A
7:00 AM22 °FCold.3 mph92%30.54 "HgN/A
5:00 AM24 °FCold.2 mph92%30.47 "HgN/A
4:00 AM25 °FChilly.3 mph90%30.44 "HgN/A
3:00 AM27 °FSnow flurries. Overcast.1 mph90%30.42 "Hg5 mi
2:00 AM27 °FChilly.1 mph93%30.42 "HgN/A
1:00 AM27 °FChilly.1 mph93%30.39 "HgN/A
12:00 AM28 °FChilly.3 mph93%30.37 "HgN/A
11:00 PM
Dec 18
29 °FChilly.3 mph93%30.35 "HgN/A
10:00 PM29 °FChilly.1 mph93%30.32 "HgN/A
9:00 PM29 °FSnow flurries. Overcast.1 mph95%30.30 "Hg2 mi
8:00 PM29 °FChilly.2 mph94%30.27 "HgN/A
7:00 PM29 °FChilly.No wind95%30.24 "HgN/A
Weather by CustomWeather, © 2014

See weather overviewHow to use our weather pages